Regional Weather Roundup
Issued by NWS Wakefield, VA

Home | Current Version | Previous Version | Graphics & Text | Print | Product List | Glossary On
Versions: 1 2 3 4 5 6 7 8 9 10 11 12 13 14 15 16 17 18 19 20 21 22 23 24 25 26 27 28 29 30 31 32 33 34 35 36 37 38 39 40 41 42 43 44 45 46 47 48 49 50
944
ASUS41 KAKQ 202115
RWRAKQ

REGIONAL WEATHER ROUNDUP
NATIONAL WEATHER SERVICE WAKEFIELD VA
400 PM EST FRI JAN 20 2017

Note: "fair" indicates few or no clouds below 12,000 feet with no
significant weather and/or obstructions to visibility. * = Denotes
station may not report precipitation (e.g., rain,snow,etc.),
thunder or fog.

VAZ042-051-052>054-056-202200-
NORTHERN VIRGINIA

CITY           SKY/WX    TMP DP  RH WIND       PRES   REMARKS
WASH NATIONAL  CLOUDY    48  45  89 S8        29.88R
DULLES         CLOUDY    48  44  86 SE10      29.85S
FORT BELVOIR   CLOUDY    47  44  89 SE6       29.87F
QUANTICO       CLOUDY    45  45 100 SE6       29.88F FOG
FREDERICKSBRG* CLOUDY    49  49 100 SE5       29.85F
STAFFORD*      CLOUDY    48  48  99 SE6       29.89F
WARRENTON      CLOUDY    51  45  78 S6        29.84S
CULPEPER*      CLOUDY    51  47  87 S6        29.86S
MANASSAS*      CLOUDY   N/A N/A N/A S5        29.87R
LEESBURG*      CLOUDY    50  48  93 S6        29.86R
WINCHESTER     MOSUNNY   52  43  71 SE5       29.80S
FRONT ROYAL*   FAIR      54  45  71 NE3       29.78F
LURAY*         FAIR      57  50  77 SW10      29.79S
$$

VAZ048-049-060>072-079>083-202200-
CENTRAL AND SOUTH CENTRAL VIRGINIA

CITY           SKY/WX    TMP DP  RH WIND       PRES   REMARKS
RICHMOND       LGT RAIN  48  47  96 SE5       29.87S FOG
CHESTERFIELD*  CLOUDY    48  34  57 E3        29.88S
PETERSBURG*    DRIZZLE   48  46  93 CALM      29.88R
HANOVER        CLOUDY    49  45  86 CALM      29.89S FOG
TAPPAHANNOCK*  LGT RAIN  49  49 100 CALM      29.88F
QUINTON*       CLOUDY    48  48 100 MISG      29.87R
CHARLOTTSVILLE CLOUDY    52  47  83 SE6       29.83S
GORDONSVILLE*  CLOUDY    49  48  95 SW3       29.84S
ORANGE*          N/A     50  50 100 SE5       29.86S
LOUISA*        CLOUDY    54  50  87 S3        29.83F
BUMPASS*       CLOUDY    48  48 100 S6        29.85S
FARMVILLE*     CLOUDY    52  51  95 CALM      29.85R
CREWE*         CLOUDY    50  50 100 CALM      29.86R
FORT PICKETT*  CLOUDY   N/A N/A N/A SE7       29.86S
CHASE CITY*    CLOUDY    50  49  94 CALM      29.85S
CLARKSVILLE*   CLOUDY    48  48 100 CALM      29.86R
SOUTH HILL*    CLOUDY    49  49 100 CALM      29.91R
LAWRENCEVILLE* CLOUDY    49  48  97 CALM      29.86R
EMPORIA*       CLOUDY    46  46 100 NE5       29.88S FOG
$$

VAZ088>098-202200-
SOUTHEAST VIRGINIA

CITY           SKY/WX    TMP DP  RH WIND       PRES   REMARKS
NORFOLK        LGT RAIN  48  46  93 E5        29.87F FOG
VIRGINIA BEACH LGT RAIN  47  44  90 E6        29.87F
NORFOLK NAVAL  CLOUDY    47  45  93 E9        29.89F FOG
WEST POINT*    CLOUDY    49  47  96 CALM      29.90R
SALUDA*        CLOUDY    45  45 100 E5        29.89S
NEWPORT NEWS   CLOUDY    48  46  93 E8        29.88S FOG
LANGLEY AFB    CLOUDY    47  47  99 E7        29.88S
FORT EUSTIS    CLOUDY    50  46  87 E6        29.85F
WILLIAMSBURG*  CLOUDY    52  50  93 CALM      29.88S
HR EXEC AP*    CLOUDY    48  46  93 CALM      29.86S
FRANKLIN*      CLOUDY    49  47  95 E3        29.88S
US460-WAKEFLD  CLOUDY    49  48  97 CALM      29.87R FOG
$$

VAZ020-022-025-037-045-202200-
WEST CENTRAL AND SOUTHWEST VIRGINIA

CITY           SKY/WX    TMP DP  RH WIND       PRES   REMARKS
STAUNTON*      SUNNY     55  47  74 SW9       29.82S
WAYNESBORO*    FAIR      54  46  76 W6        29.82S
HOT SPRINGS VA MOSUNNY   52  48  87 W9        29.81R
LYNCHBURG      CLOUDY    49  47  93 VRB3      29.85S
DANVILLE       CLOUDY    51  50  96 CALM      29.85S
SOUTH BOSTON*  CLOUDY    50  49  95 CALM      29.86R
MARTINSVILLE   CLOUDY    52  49  89 CALM      29.87S
ROANOKE        PTSUNNY   53  47  79 SE5       29.85S
BLACKSBURG     MOSUNNY   55  51  83 CALM      29.85F
DUBLIN*        SUNNY     59  52  76 CALM      29.83S
MARION*        CLOUDY    58  52  79 W10       29.85S
HILLSVILLE*    SUNNY     59  51  75 CALM      29.82S
RICHLANDS*     FAIR     N/A N/A N/A SW9       29.82S
WISE*          MOSUNNY   59  46  63 SW12G20   29.82R
ABINGDON*      CLOUDY    62  53  72 W9        29.82R
$$

MDZ021>025-VAZ099-100-202200-
SOUTHERN MARYLAND AND THE DELMARVA PENINSULA

CITY           SKY/WX    TMP DP  RH WIND       PRES   REMARKS
PATUXENT RIVER CLOUDY    45  43  93 S6        29.89S
BAY BRIDGE APT CLOUDY    45  43  93 SE7       29.89F FOG
LEONARDTOWN    CLOUDY    46  43  87 SE3       29.89F
DOVER          CLOUDY    43  43 100 SE6       29.91S
GEORGETOWN     CLOUDY    47  44  90 SE5       29.93S FOG
EASTON         PTSUNNY   46  43  87 SE6       29.92F FOG
CAMBRIDGE      CLOUDY    46  43  87 SE8       29.88F
SALISBURY      CLOUDY    47  45  93 E8        29.90F
OCEAN CITY     CLOUDY    45  44  97 SE5       29.92F FOG
WALLOPS ISLAND CLOUDY    46  46 100 SE3       29.92S FOG
ACCOMACK*      LGT RAIN  47  45  93 SE5       29.90F
$$

NCZ012>017-030>032-202200-
NORTH CENTRAL AND EASTERN NORTH CAROLINA

CITY           SKY/WX    TMP DP  RH WIND       PRES   REMARKS
ROANOKE RAPIDS CLOUDY    50  50 100 CALM      29.86F FOG
RALEIGH        CLOUDY    59  54  83 W5        29.85S
ELIZABETH CITY CLOUDY    50  49  96 NE7       29.87S
AHOSKIE*         N/A     49  49  97 CALM      29.87R
EDENTON*       CLOUDY    53  49  87 CALM      29.87S
CURRITUCK*     CLOUDY    49  49 100 NE5       29.88R FOG
KILL DEVIL HLS NOT AVBL
MANTEO         CLOUDY    50  49  98 E8        29.87S
CAPE HATTERAS  CLOUDY    65  62  90 SW6       29.84S FOG
TARBORO*       NOT AVBL
GOLDSBORO      CLOUDY    68  62  79 NW3       29.81S
WASHINGTON     PTSUNNY   60  54  79 CALM        N/A
GREENVILLE     CLOUDY    63  55  77 NE3       29.86F
NEW BERN       CLOUDY    72  59  63 W3        29.83F
WILMINGTON     PTSUNNY   73  61  65 SW8       29.82F
$$

VAZ048-202200-
ELSEWHERE

CITY           SKY/WX    TMP DP  RH WIND       PRES   REMARKS
HARRISBURG PA  CLOUDY    41  40  96 E8        29.87S FOG
BALTIMORE      CLOUDY    44  43  96 SE5       29.89S
ANNAPOLIS      CLOUDY    44  42  93 CALM      29.90S FOG
ANDREWS AFB    CLOUDY    46  44  93 SE3       29.87F
PHILADELPHIA   CLOUDY    41  39  93 E5        29.93F
HENDERSON NC   CLOUDY    50  48  93 CALM      29.85R FOG
GREENSBORO     CLOUDY    55  53  93 CALM      29.84R
ROCKY MOUNT    CLOUDY    55  53  93 N5        29.85S
$$

VAZ100-202200-
MARINE

STATION/POSITION TIME  TEMP    WIND        PRES    WAVE   SWELL
                       AIR SEA DIR/SP/G            HT/PER HT/PER
                 (UTC) (F)     (DEG/KT/KT) (MB)    (FT/S) (FT/S)
CAPE MAY NJ      2048   43 41   80/  3/  7 1012.9F
LEWES DE         2048   45 42  130/  5/  7 1013.1F
OCEAN-CITY-INLET 2048   45 42  140/  3/  5 1013.5F
WACHAPREAGUE VA  2048   46 47  110/  6/  8 1012.6F
THOMAS POINT MD  2100   43 39  180/  3/  3   N/A
GOOSES REEF MD   2050   42     160/  6/  6 1012.6F
COVE POINT MD    2048   42     180/ 10/ 11 1012.7S
SOLOMONS ISLAND  2048   44 41                N/A
BISHOPS HEAD MD  2048   45 44  120/  7/  8 1012.3F
PINEY POINT MD   2048          140/  8/  9   N/A
POTOMAC MD       2050   42     150/  4/  4 1011.5F
CAMBRIDGE MD     2048   47 40  110/  7/  8 1011.1F
LEWISETTA VA     2048   47 44  180/  4/  5 1012.0F
RAPPAHANNOCK LGT 2048           90/  8/  8 1012.7F
STINGRAY PT      2050   43     100/  4/  6 1012.5F
YORK RVR RNG VA  2048   45     110/ 11/ 11 1011.2F
YORKTOWN VA      2048   46 42  110/  7/  8 1011.5F
JAMESTOWN VA     2050   47     100/  4/  6   N/A
DOMINION TERM VA 2048   46      10/  2/  4 1011.6F
KIPTOPEKE VA     2048      44   90/  5/  9   N/A
CHES BAY BRIDGE  2048   45 43   80/ 11/ 12 1011.5F
CAPE HENRY VA    2048   45      70/  9/ 10   N/A
WILLOUBY STN VA  2048   45      80/ 10/ 11 1012.4F
S CRANEY ISL VA  2048   48      80/  5/  7 1011.2F
CAPE HENRY BUOY  2042      48                N/A     3/11   2/11
OFFSHORE WE BUOY 2051      49                N/A     4/11   2/11
64NM E OF VA BCH 2050   53 58   60/ 12/ 16 1011.8F   4/11   5/11
DUCK PIER NC     2048   48 45   60/  9/  9 1010.6F
44100 DUCK FRF   2035      48                N/A     4/13   3/13
44056 DUCK FRF   2030      45                N/A     4/13   2/13
OREGON INLET NC  2036   50 49   30/  8/ 10 1010.9F
HATTERAS NC      2048   64 55  190/  3/  9 1009.9R
DIAMOND SHLS NC  2050   71 76  190/ 19/ 23 1009.6F   5/11   5/11
CAPE LOOKOUT NC  2000   66     240/  9/ 12 1010.1R
$$




USA.gov is the U.S. government's official web portal to all federal, state and local government web resources and services.